Location: Brad
(46.1333°N, 22.7833°E)
Time: 11:30:11
(UTC+00:00)

USA 215 - Pass Details

Date: 03 February 2023
Orbit: 1102 x 1105 km, 123.0° (Epoch: 27 March)

Event Time Altitude Azimuth Distance (km) Brightness Sun altitude
Rises 16:28:03 0° 136° (SE) 3,908 5.8 -9.3°
Reaches altitude 10° 16:30:33 10° 138° (SE) 2,953 5.2 -9.7°
Maximum altitude 16:37:03 68° 222° (SW) 1,177 3.6 -10.8°
Drops below altitude 10° 16:43:34 10° 305° (NW) 2,966 6.2 -11.9°
Sets 16:46:05 0° 308° (NW) 3,927 6.8 -12.4°
